Radiation Dose at Monitoring Post of Fukushima Daini Nuclear Power Station
Date,Time,MP-1(microSv/h),MP-2(microSv/h),MP-3(microSv/h),MP-4(microSv/h),MP-5(microSv/h),MP-6(microSv/h),MP-7(microSv/h),Wind Direction,Wind Velocity(m/s),Rain
2019/05/10,00:00,0.199,0.186,0.301,0.283,0.275,0.151,0.092,west-northwest,9.5,No
2019/05/10,00:10,0.197,0.186,0.301,0.283,0.272,0.151,0.092,west,14.3,No
2019/05/10,00:20,0.199,0.187,0.303,0.282,0.274,0.151,0.093,west,14.9,No
2019/05/10,00:30,0.197,0.187,0.302,0.282,0.273,0.151,0.092,west-northwest,14.9,No
2019/05/10,00:40,0.199,0.188,0.302,0.284,0.275,0.151,0.093,west,14.7,No
2019/05/10,00:50,0.197,0.187,0.301,0.281,0.273,0.151,0.091,west,14.0,No
2019/05/10,01:00,0.198,0.187,0.303,0.283,0.277,0.151,0.091,west,14.7,No
2019/05/10,01:10,0.198,0.186,0.300,0.282,0.274,0.152,0.091,west,13.4,No
2019/05/10,01:20,0.199,0.187,0.302,0.283,0.275,0.150,0.092,west,13.3,No
2019/05/10,01:30,0.198,0.186,0.300,0.281,0.273,0.151,0.092,west,13.9,No
2019/05/10,01:40,0.198,0.187,0.303,0.283,0.275,0.150,0.092,west,12.5,No
2019/05/10,01:50,0.197,0.185,0.301,0.283,0.273,0.151,0.093,west-northwest,7.8,No
2019/05/10,02:00,0.199,0.187,0.303,0.283,0.275,0.150,0.091,west-northwest,4.8,No
2019/05/10,02:10,0.199,0.187,0.302,0.281,0.272,0.151,0.093,-,CALM,No
2019/05/10,02:20,0.198,0.187,0.302,0.283,0.276,0.151,0.092,north-northeast,3.4,No
2019/05/10,02:30,0.197,0.186,0.301,0.282,0.274,0.151,0.093,north-northeast,3.5,No
2019/05/10,02:40,0.198,0.187,0.303,0.284,0.275,0.151,0.092,north,3.6,No
2019/05/10,02:50,0.198,0.187,0.302,0.281,0.274,0.151,0.093,north-northwest,2.7,No
2019/05/10,03:00,0.199,0.185,0.303,0.282,0.273,0.151,0.092,northwest,2.8,No
2019/05/10,03:10,0.197,0.187,0.302,0.283,0.274,0.151,0.093,north,2.2,No
2019/05/10,03:20,0.198,0.185,0.302,0.283,0.274,0.151,0.092,north-northwest,2.1,No
2019/05/10,03:30,0.198,0.187,0.303,0.282,0.273,0.150,0.092,west-northwest,3.5,No
2019/05/10,03:40,0.199,0.186,0.301,0.282,0.273,0.151,0.092,west-southwest,7.7,No
2019/05/10,03:50,0.197,0.185,0.303,0.282,0.275,0.151,0.092,west-northwest,10.0,No
2019/05/10,04:00,0.199,0.187,0.302,0.281,0.272,0.151,0.092,west-northwest,13.2,No
2019/05/10,04:10,0.197,0.186,0.302,0.282,0.273,0.151,0.092,west,11.8,No
2019/05/10,04:20,0.199,0.186,0.301,0.281,0.274,0.151,0.093,west-northwest,8.7,No
2019/05/10,04:30,0.198,0.186,0.304,0.282,0.274,0.151,0.092,west,3.4,No
2019/05/10,04:40,0.198,0.187,0.302,0.281,0.274,0.150,0.091,west-northwest,2.4,No
2019/05/10,04:50,0.198,0.186,0.302,0.284,0.276,0.151,0.093,west-northwest,2.0,No
2019/05/10,05:00,0.198,0.185,0.301,0.282,0.274,0.152,0.092,west-northwest,3.5,No
2019/05/10,05:10,0.198,0.187,0.305,0.283,0.274,0.152,0.093,west-northwest,4.8,No
2019/05/10,05:20,0.198,0.186,0.302,0.283,0.273,0.151,0.092,west,8.1,No
2019/05/10,05:30,0.199,0.188,0.303,0.283,0.275,0.152,0.092,west-northwest,7.3,No
2019/05/10,05:40,0.199,0.186,0.302,0.282,0.273,0.151,0.092,west-northwest,7.3,No
2019/05/10,05:50,0.199,0.187,0.303,0.284,0.274,0.152,0.092,west-northwest,6.2,No
2019/05/10,06:00,0.198,0.185,0.301,0.282,0.273,0.151,0.092,west,5.5,No
2019/05/10,06:10,0.199,0.187,0.304,0.284,0.274,0.152,0.091,west-northwest,9.3,No
2019/05/10,06:20,0.198,0.186,0.301,0.282,0.273,0.150,0.093,west-northwest,6.3,No
2019/05/10,06:30,0.198,0.186,0.302,0.284,0.274,0.152,0.092,west-northwest,3.4,No
2019/05/10,06:40,0.198,0.186,0.301,0.280,0.274,0.151,0.092,north-northwest,3.3,No
2019/05/10,06:50,0.199,0.187,0.303,0.284,0.274,0.152,0.092,west,2.5,No
2019/05/10,07:00,0.199,0.187,0.302,0.282,0.274,0.151,0.092,west-northwest,3.2,No
2019/05/10,07:10,0.197,0.186,0.304,0.280,0.272,0.151,0.091,northwest,2.9,No
2019/05/10,07:20,0.199,0.187,0.302,0.284,0.275,0.151,0.092,west,7.6,No
2019/05/10,07:30,0.197,0.187,0.300,0.281,0.272,0.151,0.092,west,10.1,No
2019/05/10,07:40,0.199,0.185,0.302,0.281,0.275,0.152,0.092,west,9.2,No
2019/05/10,07:50,0.197,0.185,0.302,0.282,0.273,0.151,0.090,northwest,1.7,No
2019/05/10,08:00,0.197,0.188,0.300,0.283,0.272,0.152,0.091,west-southwest,5.4,No
2019/05/10,08:10,0.198,0.186,0.303,0.281,0.274,0.152,0.092,south,2.2,No
2019/05/10,08:20,0.199,0.185,0.304,0.280,0.273,0.152,0.092,west,4.9,No
2019/05/10,08:30,0.196,0.186,0.301,0.279,0.271,0.150,0.091,west-southwest,4.8,No
2019/05/10,08:40,0.196,0.187,0.303,0.278,0.275,0.151,0.091,west,3.2,No
2019/05/10,08:50,0.197,0.187,0.302,0.279,0.274,0.151,0.091,west-northwest,5.5,No
2019/05/10,09:00,0.199,0.185,0.301,0.279,0.272,0.150,0.090,west-northwest,4.8,No
2019/05/10,09:10,0.198,0.185,0.304,0.279,0.271,0.151,0.092,northwest,3.7,No
2019/05/10,09:20,0.198,0.186,0.303,0.280,0.271,0.151,0.093,west,9.0,No
2019/05/10,09:30,0.195,0.185,0.298,0.280,0.270,0.151,0.092,west,8.4,No
2019/05/10,09:40,0.197,0.185,0.303,0.280,0.274,0.151,0.092,southeast,2.9,No
2019/05/10,09:50,0.197,0.185,-,0.281,0.276,0.151,0.092,southeast,5.2,No
2019/05/10,10:00,0.200,0.185,-,0.282,0.275,0.152,0.091,southeast,5.4,No
2019/05/10,10:10,0.199,0.186,-,0.283,0.273,0.151,0.093,east-southeast,6.2,No
2019/05/10,10:20,0.197,0.188,-,0.280,0.271,0.152,0.093,southeast,6.4,No
2019/05/10,10:30,0.197,0.187,-,0.280,0.272,0.152,0.092,southeast,7.3,No
2019/05/10,10:40,0.196,0.185,-,0.281,0.275,0.152,0.092,southeast,5.7,No
2019/05/10,10:50,0.196,0.186,-,0.281,0.274,0.152,0.092,southeast,6.6,No
2019/05/10,11:00,0.196,0.188,-,0.283,0.274,0.151,0.093,southeast,6.3,No
2019/05/10,11:10,0.200,0.188,-,0.285,0.271,0.152,0.093,south-southeast,8.7,No
2019/05/10,11:20,0.200,0.186,-,0.285,0.272,0.152,0.092,south-southeast,7.9,No
2019/05/10,11:30,0.198,0.186,-,0.283,0.274,0.152,0.092,south-southeast,7.5,No
2019/05/10,11:40,0.198,0.188,-,0.282,0.276,0.151,0.093,south-southeast,7.7,No
2019/05/10,11:50,0.197,0.188,-,0.281,0.275,0.150,0.093,south-southeast,6.5,No
2019/05/10,12:00,0.196,0.187,-,0.281,0.273,0.152,0.092,south,6.3,No
2019/05/10,12:10,0.197,0.185,-,0.282,0.271,0.152,0.092,south-southeast,7.1,No
2019/05/10,12:20,0.200,0.189,-,0.285,0.270,0.151,0.093,south-southeast,5.6,No
2019/05/10,12:30,0.200,0.189,-,0.284,0.274,0.152,0.093,south-southeast,6.8,No
2019/05/10,12:40,0.199,0.188,-,0.284,0.274,0.152,0.092,south-southeast,9.0,No
2019/05/10,12:50,0.198,0.187,-,0.282,0.274,0.152,0.092,south,11.1,No
2019/05/10,13:00,0.196,0.188,-,0.281,0.272,0.151,0.093,south,9.8,No
2019/05/10,13:10,0.197,0.188,-,0.285,0.271,0.153,0.092,south,9.8,No
2019/05/10,13:20,0.199,0.187,-,0.286,0.274,0.153,0.093,south-southeast,11.7,No
2019/05/10,13:30,0.201,0.187,-,0.285,0.276,0.151,0.093,south,11.5,No
2019/05/10,13:40,0.199,0.189,-,0.283,0.274,0.151,0.092,south-southeast,9.8,No
2019/05/10,13:50,0.198,0.188,-,0.281,0.273,0.152,0.092,south,10.3,No
2019/05/10,14:00,0.197,0.188,-,0.282,0.272,0.152,0.093,south,12.1,No
2019/05/10,14:10,0.197,0.186,-,0.286,0.271,0.152,0.093,south,11.8,No
2019/05/10,14:20,0.200,0.188,-,0.286,0.271,0.152,0.093,south,10.7,No
2019/05/10,14:30,0.199,0.188,-,0.284,0.274,0.152,0.093,south-southeast,11.0,No
2019/05/10,14:40,0.198,0.187,-,0.283,0.277,0.151,0.093,south,9.8,No
2019/05/10,14:50,0.199,0.187,-,0.283,0.275,0.151,0.092,south-southeast,11.0,No
2019/05/10,15:00,0.197,0.188,-,0.287,0.274,0.151,0.093,south-southeast,11.8,No
2019/05/10,15:10,0.198,0.189,0.301,0.285,0.272,0.152,0.093,-,CALM,No
2019/05/10,15:20,0.201,0.187,0.306,0.282,0.272,0.152,0.092,south-southeast,10.6,No
2019/05/10,15:30,0.200,0.186,0.305,0.286,0.271,0.152,0.093,south-southeast,11.1,No
2019/05/10,15:40,0.198,0.188,0.303,0.284,0.275,0.152,0.093,south-southeast,10.7,No
2019/05/10,15:50,0.197,0.187,0.303,0.286,0.276,0.151,0.093,south-southeast,11.8,No
2019/05/10,16:00,0.199,0.187,0.306,0.285,0.273,0.152,0.093,south-southeast,11.7,No
2019/05/10,16:10,0.200,0.188,0.304,0.284,0.272,0.151,0.093,south,12.5,No
2019/05/10,16:20,0.199,0.187,0.303,0.286,0.273,0.152,0.093,-,CALM,No
2019/05/10,16:30,0.196,0.189,0.306,0.285,0.277,0.152,0.093,south-southeast,11.4,No
2019/05/10,16:40,0.200,0.188,0.304,0.286,0.273,0.151,0.093,south-southeast,11.1,No
2019/05/10,16:50,0.200,0.187,0.308,0.285,0.271,0.152,0.093,south,11.3,No
2019/05/10,17:00,0.198,0.189,0.305,0.283,0.274,0.153,0.093,south,9.2,No
2019/05/10,17:10,0.201,0.188,0.305,0.286,0.277,0.152,0.093,south,9.5,No
2019/05/10,17:20,0.199,0.188,0.305,0.284,0.274,0.153,0.093,south,9.5,No
2019/05/10,17:30,0.200,0.188,0.303,0.287,0.274,0.152,0.093,south,10.1,No
2019/05/10,17:40,0.200,0.187,0.306,0.285,0.277,0.152,0.093,south,10.0,No
2019/05/10,17:50,0.199,0.187,0.303,0.286,0.274,0.152,0.093,south,8.8,No
2019/05/10,18:00,0.202,0.188,0.307,0.286,0.277,0.152,0.092,south,9.8,No
2019/05/10,18:10,0.198,0.186,0.304,0.285,0.276,0.152,0.093,south,8.2,No
2019/05/10,18:20,0.199,0.188,0.305,0.287,0.275,0.152,0.093,south,8.1,No
2019/05/10,18:30,0.199,0.187,0.304,0.284,0.276,0.152,0.093,south,8.2,No
2019/05/10,18:40,0.198,0.188,0.306,0.285,0.275,0.152,0.092,south,7.6,No
2019/05/10,18:50,0.200,0.188,0.305,0.284,0.277,0.152,0.093,south,7.0,No
2019/05/10,19:00,0.199,0.189,0.305,0.287,0.274,0.153,0.093,south-southwest,7.4,No
2019/05/10,19:10,0.201,0.188,0.305,0.284,0.276,0.153,0.092,south-southwest,6.7,No
2019/05/10,19:20,0.198,0.188,0.303,0.286,0.275,0.151,0.093,south-southwest,5.1,No
2019/05/10,19:30,0.201,0.188,0.305,0.284,0.276,0.153,0.093,southwest,3.5,No
2019/05/10,19:40,0.199,0.187,0.304,0.287,0.274,0.151,0.092,southwest,4.5,No
2019/05/10,19:50,0.201,0.189,0.306,0.286,0.277,0.152,0.092,west,3.2,No
2019/05/10,20:00,0.200,0.188,0.304,0.287,0.276,0.152,0.093,west,2.3,No
2019/05/10,20:10,0.200,0.190,0.306,0.284,0.277,0.153,0.094,west,2.3,No
2019/05/10,20:20,0.199,0.188,0.305,0.288,0.275,0.153,0.094,west-southwest,2.3,No
2019/05/10,20:30,0.201,0.189,0.307,0.284,0.277,0.153,0.093,west-southwest,2.6,No
2019/05/10,20:40,0.200,0.189,0.304,0.287,0.275,0.152,0.094,west,2.6,No
2019/05/10,20:50,0.201,0.188,0.306,0.285,0.278,0.152,0.093,west-northwest,2.2,No
2019/05/10,21:00,0.200,0.190,0.304,0.287,0.274,0.152,0.094,-,CALM,No
2019/05/10,21:10,0.201,0.189,0.304,0.286,0.277,0.152,0.093,south-southeast,0.6,No
2019/05/10,21:20,0.201,0.188,0.306,0.287,0.274,0.153,0.093,south-southeast,0.8,No
2019/05/10,21:30,0.201,0.188,0.305,0.286,0.276,0.153,0.093,-,CALM,No
2019/05/10,21:40,0.201,0.188,0.307,0.285,0.275,0.152,0.093,-,CALM,No
2019/05/10,21:50,0.200,0.190,0.306,0.287,0.275,0.152,0.093,northwest,0.8,No
2019/05/10,22:00,0.200,0.188,0.306,0.284,0.275,0.152,0.094,west-northwest,2.2,No
2019/05/10,22:10,0.200,0.189,0.307,0.286,0.275,0.153,0.093,-,CALM,No
2019/05/10,22:20,0.201,0.189,0.305,0.285,0.277,0.153,0.094,-,CALM,No
2019/05/10,22:30,0.199,0.189,0.307,0.285,0.275,0.153,0.093,west-northwest,4.8,No
2019/05/10,22:40,0.201,0.189,0.304,0.286,0.276,0.153,0.093,-,CALM,No
2019/05/10,22:50,0.199,0.187,0.307,0.285,0.273,0.153,0.094,west-northwest,3.0,No
2019/05/10,23:00,0.200,0.188,0.305,0.286,0.276,0.152,0.094,northwest,1.7,No
2019/05/10,23:10,0.202,0.188,0.305,0.286,0.274,0.153,0.093,west-northwest,1.0,No
2019/05/10,23:20,0.200,0.189,0.306,0.286,0.275,0.153,0.093,east,0.7,No
2019/05/10,23:30,0.201,0.190,0.305,0.287,0.275,0.154,0.093,east-southeast,1.3,No
2019/05/10,23:40,0.199,0.189,0.305,0.286,0.276,0.152,0.093,east-southeast,1.4,No
2019/05/10,23:50,0.201,0.189,0.306,0.287,0.276,0.153,0.094,-,CALM,No
